Regional Weather Roundup
Issued by NWS Nashville, TN

Current Version | Previous Version | Text Only | Print | Product List | Glossary On
Versions: 1 2 3 4 5 6 7 8 9 10 11 12 13 14 15 16 17 18 19 20 21 22 23 24 25 26 27 28 29 30 31 32 33 34 35 36 37 38 39 40 41 42 43 44 45 46 47 48 49 50
000
ASUS44 KOHX 300215
RWROHX
MIDDLE TENNESSEE HOURLY WEATHER ROUNDUP
NATIONAL WEATHER SERVICE NASHVILLE TN
900 PM CDT FRI AUG 29 2014

NOTE: "FAIR" INDICATES FEW OR NO CLOUDS BELOW 12,000 FEET WITH
NO SIGNIFICANT WEATHER AND/OR OBSTRUCTIONS TO VISIBILITY.

* THESE REPORTS ARE NOT UNDER NWS QUALITY CONTROL AND MAY NOT
  REPORT WEATHER SUCH AS PRECIPITATION AND FOG.


TNZ005>011-023>034-057-059-062>066-078-080-300300
...NORTHERN MIDDLE TENNESSEE...

CITY           SKY/WX    TMP DP  RH WIND       PRES   REMARKS
CLARKSVILLE    CLEAR     78  64  61 CALM      29.99R
CROSSVILLE     PTCLDY    72  64  76 CALM      30.12R
GALLATIN         N/A     79  66  64 CALM      30.03R
DICKSON        CLEAR     73  64  73 CALM      30.01R
LEBANON        CLEAR     74  64  70 SE3       30.01R
LIVINGSTON     PTCLDY    74  62  66 S3        30.08
NASHVILLE      PTCLDY    79  62  56 S5        30.01R
WEST NASHVILLE   N/A     81  63  54 CALM      30.00R
PORTLAND       CLEAR     75  63  64 SE3       30.01R
SMYRNA         CLEAR     74  65  73 CALM      30.02R
SPARTA         CLEAR     70  68  94 CALM      30.06R
$$
TNZ056-058-060-061-075>077-079-093>097-300300
...SOUTHERN MIDDLE TENNESSEE...

CITY           SKY/WX    TMP DP  RH WIND       PRES   REMARKS
COLUMBIA         N/A     75  73  94 CALM      30.01R
FAYETTEVILLE   CLEAR     73  63  68 E5        30.04R
LEWISBURG      CLEAR     72  66  81 CALM      30.02R
MCMINNVILLE    CLEAR     72  70  94 CALM      30.06R
SHELBYVILLE    CLEAR     73  68  83 E5        30.04R
TULLAHOMA      CLEAR     72  64  78 CALM      30.07R
WINCHESTER     CLEAR     73  66  78 CALM      30.06R
$$


...KEY TO REMARKS...
VSB - VISIBILITY IN MILES
WCI - WIND CHILL INDEX
HX  - HEAT INDEX



USA.gov is the U.S. government's official web portal to all federal, state and local government web resources and services.